星链-32184 (STARLINK-32184)

导读

STARLINK-32184是美国太空探索技术公司星链星座中的一颗卫星,于2024年8月31日发射入轨。星链项目旨在构建全球卫星互联网星座,为全球偏远地区、海洋空域等提供高速互联网接入服务,该卫星加入后进一步扩充了星链星座的在轨规模,提升星座覆盖与服务能力。

Basic Information
目录编号:
60942
目录名称:
STARLINK-32184
国际标识:
2024-155U
轨道中心:
EARTH
卫星名称:
星链-32184
卫星全名:
星链-32184 (STARLINK-32184)
卫星状态:
在轨 (已飞行656 天)
发射日期:
2024-08-31 UTC
国别 :
美国 (US)
星等 :
--
Orbit Information
数据来源 国际轨道数据 AOE轨道数据
星历时间 2026-06-18T02:49:19+0800
7小时前
查看轨道信息
2026-06-15T05:00:00+0800
3天前
查看轨道信息
半长轴 6840.781km 6840.861km
偏心率 0.0001326 0.0001231
轨道倾角 53.160° 53.161°
近地点辐角 89.745° 85.799°
升交点赤经 24.188° 37.791°
平近点角 270.370° 35.092°
近地点 461.736km 461.881km
远地点 463.552km 463.567km
周期 93.847分钟 93.848分钟
每日圈数 15.344201 15.343932
Detailed Information
固有亮度:
5
最大亮度:
2.5
卫星平台:
Starlink V1.0
覆盖范围:
全球
运营商:
太空探索技术公司
运营商所在国:
美国
制造商(研发单位):
太空探索技术公司
制造商所在国:
美国
使用方式:
暂无
Satellite Introduction
Starlink 计划是 SpaceX 推出的全球卫星互联网项目,通过发射低轨道卫星,为全球尤其是偏远地区提供高速、低延迟的互联网服务。自 2019 年起,Starlink 已部署数千颗卫星,旨在缩小全球数字鸿沟,推动互联网普及。该项目还为军事、航空等行业提供通信支持,带来广泛经济效益。
2D Orbit Map
3D Orbit Map
Orbit Altitude Analysis Chart
Orbit Inclination Analysis Chart
Orbit Comprehensive Analysis Chart
View Comprehensive Chart